Weather History for Andalusia, AL

Change the Weather History Date:

Thursday, January 23, 2014

  Actual Average (KCEW) Record (KCEW)
Temperature  
Mean Temperature 42 °F -  
Max Temperature 53 °F 60 °F 77 °F (1950)
Min Temperature 30 °F 36 °F 19 °F (2011)
Degree Days  
Heating Degree Days 24    
Moisture  
Dew Point 18 °F    
Average Humidity 41    
Maximum Humidity 75    
Minimum Humidity 24    
Precipitation  
Precipitation 0.00 in - - ()
Sea Level Pressure  
Sea Level Pressure 30.38 in    
Wind  
Wind Speed 3 mph (NNE)    
Max Wind Speed 13 mph    
Max Gust Speed -    
Visibility 10 miles    
Events      
Averages and records for this station are not official NWS values.
T = Trace of Precipitation, MM = Missing Value Source: NWS Daily Summary

Daily Weather History Graph

Daily Weather History Graph

Search for Another Location

Airport:

Trip Planner

Search our weather history database for the weather conditions in past years. The results will help you decide how hot, cold, wet, or windy it might be!

Date:

Astronomy

Jan. 23, 2014 Rise Set
Actual Time 6:42 AM CST 5:12 PM CST
Civil Twilight 6:16 AM CST 5:38 PM CST
Nautical Twilight 5:47 AM CST 6:07 PM CST
Astronomical Twilight 5:18 AM CST 6:36 PM CST
Moon No Moon Rise 10:46 AM CST (1/23)
Length of Visible Light 11h 21m
Length of Day
10h 29m
Waning Gibbous, 55% of the Moon is Illuminated
Jan 23
Waning Gibbous
Jan 23
Last Quarter
Jan 30
New
Feb 6
First Quarter
Feb 14
Full

Hourly Weather History & Observations

Time (CST) Temp. Windchill Dew Point Humidity Pressure Visibility Wind Dir Wind Speed Gust Speed Precip Events Conditions
12:56 AM 32.0 °F - 23.0 °F 69% 30.22 in 10.0 mi Calm Calm - N/A   Clear
1:56 AM 30.9 °F - 23.0 °F 72% 30.24 in 10.0 mi Calm Calm - N/A   Clear
2:56 AM 32.0 °F - 24.1 °F 73% 30.26 in 10.0 mi Calm Calm - N/A   Clear
3:56 AM 32.0 °F - 25.0 °F 75% 30.27 in 10.0 mi Calm Calm - N/A   Clear
4:56 AM 32.0 °F - 25.0 °F 75% 30.30 in 10.0 mi Calm Calm - N/A   Clear
5:56 AM 34.0 °F - 21.0 °F 59% 30.32 in 10.0 mi Calm Calm - N/A   Clear
6:56 AM 34.0 °F - 15.1 °F 46% 30.34 in 10.0 mi Calm Calm - N/A   Clear
7:56 AM 37.9 °F 35.5 °F 15.1 °F 39% 30.38 in 10.0 mi NE 3.5 mph - N/A   Clear
8:56 AM 43.0 °F 37.2 °F 14.0 °F 31% 30.40 in 10.0 mi ENE 10.4 mph - N/A   Clear
9:56 AM 46.9 °F - 14.0 °F 27% 30.42 in 10.0 mi Variable 4.6 mph - N/A   Clear
10:56 AM 48.9 °F - 14.0 °F 25% 30.40 in 10.0 mi North 5.8 mph - N/A   Clear
11:56 AM 51.1 °F - 16.0 °F 25% 30.39 in 10.0 mi Variable 3.5 mph - N/A   Clear
12:56 PM 53.1 °F - 17.1 °F 24% 30.37 in 10.0 mi North 8.1 mph - N/A   Clear
1:56 PM 52.0 °F - 16.0 °F 24% 30.36 in 10.0 mi Variable 4.6 mph - N/A   Clear
2:56 PM 52.0 °F - 17.1 °F 25% 30.38 in 10.0 mi NNW 8.1 mph - N/A   Clear
3:56 PM 53.1 °F - 19.0 °F 26% 30.38 in 10.0 mi NNE 8.1 mph - N/A   Clear
4:56 PM 50.0 °F - 19.0 °F 29% 30.39 in 10.0 mi NNE 8.1 mph - N/A   Clear
5:56 PM 46.0 °F 43.9 °F 18.0 °F 33% 30.42 in 10.0 mi NNE 4.6 mph - N/A   Clear
6:56 PM 43.0 °F 40.3 °F 18.0 °F 37% 30.44 in 10.0 mi NNE 4.6 mph - N/A   Scattered Clouds
7:56 PM 42.1 °F 37.7 °F 17.1 °F 37% 30.45 in 10.0 mi NNE 6.9 mph - N/A   Scattered Clouds
8:56 PM 43.0 °F 39.5 °F 17.1 °F 35% 30.48 in 10.0 mi North 5.8 mph - N/A   Overcast
9:56 PM 43.0 °F 37.7 °F 14.0 °F 31% 30.51 in 10.0 mi North 9.2 mph - N/A   Overcast
10:56 PM 41.0 °F 34.7 °F 14.0 °F 33% 30.51 in 10.0 mi North 10.4 mph - N/A   Overcast
11:56 PM 39.9 °F 32.5 °F 10.9 °F 31% 30.54 in 10.0 mi North 12.7 mph - N/A   Overcast